Location: La Tine
(46.4708°N, 7.0525°E)
Time: 01:02:50
(UTC+00:00)

SPOT 3 Rocket - Pass Details

Date: 18 September 2020
Orbit: 780 x 794 km, 98.7° (Epoch: 31 October)

Event Time Altitude Azimuth Distance (km) Brightness Sun altitude
Exits shadow 20:03:36 49° 188° (S) 1,005 3.9 -24.8°
Maximum altitude 20:04:58 73° 256° (WSW) 820 3.6 -25.0°
Drops below altitude 10° 20:10:08 10° 342° (NNW) 2,344 6.6 -25.8°
Sets 20:12:28 0° 344° (NNW) 3,278 7.5 -26.1°
